Weather History for Douglas Bisbee, AZ

Change the Weather History Date:

Sunday, February 24, 2013

  Actual Average Record
Temperature  
Mean Temperature 39 °F 51 °F  
Max Temperature 56 °F 68 °F 85 °F (2009)
Min Temperature 22 °F 34 °F 19 °F (1964)
Degree Days  
Heating Degree Days 26 14  
Month to date heating degree days 499 378  
Since 1 July heating degree days 2108 1983  
Cooling Degree Days 0 0  
Month to date cooling degree days 0 0  
Year to date cooling degree days 0 0  
Moisture  
Dew Point 14 °F    
Average Humidity 38    
Maximum Humidity 63    
Minimum Humidity 13    
Precipitation  
Precipitation 0.00 in 0.02 in 0.26 in (1971)
Month to date precipitation 0.15 0.57  
Year to date precipitation 0.81 1.31  
Snow  
Snow 0.00 in - - ()
Month to date snowfall 0.0  
Snow Depth 0.00 in    
Sea Level Pressure  
Sea Level Pressure 29.83 in    
Wind  
Wind Speed 14 mph (WNW)    
Max Wind Speed 41 mph    
Max Gust Speed 51 mph    
Visibility 10 miles    
Events      
T = Trace of Precipitation, MM = Missing Value Source: NWS Daily Summary

Daily Weather History Graph

Daily Weather History Graph

Search for Another Location

Airport:

Trip Planner

Search our weather history database for the weather conditions in past years. The results will help you decide how hot, cold, wet, or windy it might be!

Date:

Astronomy

Feb. 24, 2013 Rise Set
Actual Time 6:50 AM MST 6:13 PM MST
Civil Twilight 6:26 AM MST 6:37 PM MST
Nautical Twilight 5:57 AM MST 7:05 PM MST
Astronomical Twilight 5:29 AM MST 7:33 PM MST
Moon 5:27 PM MST (2/24) 5:48 AM MST (2/24)
Length of Visible Light 12h 11m
Length of Day
11h 22m
Waxing Gibbous, 99% of the Moon is Illuminated
Feb 24
Waxing Gibbous
Feb 25
Full
Mar 4
Last Quarter
Mar 11
New
Mar 19
First Quarter

Hourly Weather History & Observations

Time (MST) Temp. Windchill Dew Point Humidity Pressure Visibility Wind Dir Wind Speed Gust Speed Precip Events Conditions
12:56 AM 44.1 °F 40.1 °F 23.0 °F 43% 29.78 in 10.0 mi West 6.9 mph - N/A   Clear
1:56 AM 41.0 °F - 23.0 °F 49% 29.77 in 10.0 mi Calm Calm - N/A   Clear
2:56 AM 44.1 °F 40.8 °F 21.9 °F 42% 29.74 in 10.0 mi WSW 5.8 mph - N/A   Clear
3:56 AM 39.9 °F 35.8 °F 21.9 °F 49% 29.73 in 10.0 mi North 5.8 mph - N/A   Clear
4:56 AM 39.2 °F 33.0 °F 19.4 °F 45% 29.81 in 10.0 mi WSW 9.2 mph - N/A   Clear
5:56 AM 39.0 °F 34.8 °F 19.9 °F 46% 29.72 in 10.0 mi WSW 5.8 mph - N/A   Clear
6:56 AM 41.0 °F 34.3 °F 19.0 °F 41% 29.74 in 10.0 mi SW 11.5 mph - N/A   Clear
7:56 AM 45.0 °F 43.5 °F 21.0 °F 39% 29.75 in 10.0 mi WSW 3.5 mph - N/A   Scattered Clouds
8:56 AM 48.9 °F - 21.0 °F 33% 29.75 in 10.0 mi West 8.1 mph - N/A   Clear
9:17 AM 48.2 °F - 21.2 °F 34% 29.84 in 10.0 mi NW 20.7 mph 24.2 mph N/A   Clear
9:56 AM 50.0 °F - 21.0 °F 32% 29.76 in 10.0 mi WNW 18.4 mph 25.3 mph N/A   Clear
10:56 AM 54.0 °F - 19.0 °F 25% 29.73 in 10.0 mi West 28.8 mph 38.0 mph N/A   Clear
11:49 AM 48.2 °F - 21.2 °F 34% 29.83 in 10.0 mi NW 19.6 mph 27.6 mph N/A   Overcast
11:56 AM 50.0 °F - 17.1 °F 27% 29.74 in 10.0 mi WNW 25.3 mph 36.8 mph N/A   Overcast
12:56 PM 53.1 °F - 3.9 °F 14% 29.71 in 10.0 mi WNW 29.9 mph 44.9 mph N/A   Partly Cloudy
1:44 PM 51.8 °F - 3.2 °F 14% 29.81 in 8.0 mi NW 33.4 mph 47.2 mph N/A   Mostly Cloudy
1:56 PM 50.0 °F - 1.9 °F 14% 29.75 in 9.0 mi NW 33.4 mph 47.2 mph N/A   Mostly Cloudy
2:17 PM 48.2 °F - -2.2 °F 12% 29.82 in 10.0 mi NW 34.5 mph 47.2 mph N/A   Scattered Clouds
2:56 PM 48.9 °F - -0.9 °F 13% 29.77 in 10.0 mi NW 31.1 mph 43.7 mph N/A   Clear
3:56 PM 46.0 °F 36.9 °F 1.0 °F 16% 29.82 in 10.0 mi NW 28.8 mph 43.7 mph N/A   Clear
4:56 PM 43.0 °F 32.5 °F -0.0 °F 17% 29.87 in 10.0 mi NW 29.9 mph 38.0 mph N/A   Clear
5:56 PM 39.9 °F 29.5 °F 1.0 °F 20% 29.92 in 10.0 mi NW 24.2 mph 33.4 mph N/A   Clear
6:56 PM 37.0 °F 26.4 °F 14.0 °F 39% 29.97 in 10.0 mi North 20.7 mph 26.5 mph N/A   Mostly Cloudy
7:56 PM 32.0 °F 26.4 °F 17.1 °F 54% 29.98 in 10.0 mi NNW 5.8 mph - N/A   Clear
8:56 PM 28.0 °F 21.7 °F 16.0 °F 61% 29.99 in 10.0 mi NW 5.8 mph - N/A   Clear
9:56 PM 28.0 °F - 16.0 °F 61% 30.01 in 10.0 mi Calm Calm - N/A   Clear
10:56 PM 27.0 °F 21.6 °F 16.0 °F 63% 30.01 in 10.0 mi South 4.6 mph - N/A   Clear
11:56 PM 24.1 °F - 15.1 °F 69% 30.04 in 10.0 mi Calm Calm - N/A   Clear